Wind_Speed
17 16 17 17 16 16 16 16 16 16 16 15 15 15 14 13 13 13 12 12 12 12 11 11 10 9 8 8 7 7 6 6 5 5 4 4 3 3 2 2 3 3 2
18 18 18 18 18 18 18 18 18 18 18 17 16 16 15 15 14 14 14 13 13 12 12 12 11 10 10 9 9 8 8 7 7 6 6 5 5 4 3 2 4 4 3
20 20 20 19 19 19 20 19 19 19 19 18 18 17 17 16 16 16 15 15 14 13 13 13 12 11 11 10 10 9 9 9 8 7 7 6 5 4 4 4 3 3 4
22 22 21 21 21 21 21 21 21 20 20 20 20 19 19 18 18 18 17 17 16 15 15 14 13 13 12 11 11 10 10 10 9 8 8 7 6 6 6 6 6 5 5
24 23 23 23 23 23 22 22 22 22 22 22 21 21 20 20 19 19 19 18 18 17 16 16 15 14 13 13 12 11 11 11 10 10 9 8 8 7 7 7 7 7 6
26 25 25 25 24 24 24 24 24 24 24 23 23 23 22 21 21 21 20 19 19 18 18 18 17 16 15 15 14 13 13 12 12 11 11 10 10 9 9 9 8 8 8
27 27 26 26 26 26 26 26 26 26 26 25 25 24 24 23 23 22 22 21 20 20 20 19 19 18 18 17 16 15 14 14 13 13 12 12 12 11 11 10 10 10 9
28 28 28 27 27 27 27 27 28 28 28 27 26 26 25 25 24 24 24 23 23 22 22 21 21 20 19 19 18 17 16 16 15 15 14 14 13 13 13 12 12 12 11
30 30 29 29 28 28 28 29 29 29 29 28 28 27 27 26 26 26 25 25 24 23 23 23 22 22 21 20 20 18 18 17 17 16 16 15 15 14 14 14 14 13 13
31 31 31 30 29 29 29 30 31 31 31 30 29 28 28 28 28 28 27 26 26 25 25 24 23 23 23 22 21 20 20 19 18 18 17 17 17 16 16 16 15 15 15
32 32 32 31 31 31 30 30 31 32 31 31 29 30 30 29 29 30 29 28 27 27 26 26 25 25 24 23 23 22 21 20 20 20 19 19 18 18 18 17 17 17 17
33 33 33 33 33 32 32 32 32 32 33 32 31 31 30 31 31 31 31 30 30 29 28 28 27 26 25 25 24 24 23 22 21 21 20 20 19 19 19 18 18 18 18
35 34 34 34 34 33 33 33 33 34 34 34 33 32 31 32 32 32 32 32 31 31 30 30 29 28 27 27 26 26 25 24 23 23 22 21 21 20 20 20 19 19 19
35 35 35 35 35 35 34 34 35 35 35 35 35 33 33 33 33 33 33 33 33 32 32 31 31 30 30 29 29 28 27 26 25 24 24 23 23 22 22 21 20 20 21
36 36 35 35 35 35 35 35 36 37 37 37 37 35 34 34 34 34 35 35 34 34 33 33 33 32 31 31 31 30 29 28 28 26 26 25 24 24 24 23 23 22 22
37 37 37 37 36 36 36 37 37 38 38 38 38 37 35 35 35 36 37 36 36 35 34 34 34 34 33 33 32 31 31 30 29 28 28 27 26 26 25 25 25 24 24
39 39 39 38 38 38 38 38 39 39 39 39 39 38 37 37 37 37 38 38 38 37 36 36 36 36 36 36 35 34 33 32 32 31 30 29 29 28 27 27 27 26 25
40 41 41 40 40 40 39 39 40 40 40 41 40 40 39 39 39 39 40 40 40 39 39 38 38 38 38 37 37 36 34 34 34 34 32 32 31 30 30 30 29 28 28
41 42 42 42 41 42 42 42 42 42 42 42 42 42 40 40 41 41 42 41 41 41 41 39 39 39 39 39 38 38 37 36 36 35 34 34 33 33 32 32 31 30 30
42 42 42 43 42 42 42 43 43 44 43 43 43 43 42 41 41 42 43 43 43 43 42 41 41 40 40 39 39 40 40 38 37 37 36 35 35 35 34 33 32 32 32
42 42 42 43 43 44 44 44 44 45 45 44 44 44 43 43 43 43 43 44 44 44 43 43 43 42 41 41 41 41 41 40 40 38 38 38 37 37 36 35 34 34 35
42 42 42 43 43 44 44 45 45 46 46 46 46 46 45 43 43 44 44 45 45 45 45 44 45 44 43 43 43 43 43 42 41 40 40 39 39 38 38 37 37 36 37
42 42 42 43 44 45 45 45 46 47 47 47 47 47 47 46 45 44 44 46 46 46 46 46 46 45 45 45 46 45 44 43 43 43 42 41 40 40 40 39 39 39 39
42 42 42 43 43 44 45 45 46 47 47 48 47 48 48 48 46 45 45 46 46 47 46 46 46 46 47 47 47 47 46 45 44 44 44 43 42 42 42 42 42 41 41
42 42 43 43 44 45 46 46 46 46 47 48 48 48 49 48 47 46 46 46 46 47 47 47 46 47 48 48 47 48 47 47 46 45 44 44 44 44 44 43 43 43 43
42 43 43 43 44 45 46 46 46 46 47 48 49 49 48 48 47 46 45 46 46 47 48 48 47 47 48 48 48 48 47 48 48 47 46 45 45 45 45 45 44 44 44
Wind_Direction
235 236 236 236 236 238 239 239 238 238 237 236 237 237 237 238 235 235 234 235 237 237 236 234 235 238 239 237 241 245 245 249 250 254 263 273 265 265 262 229 240 251 242
238 237 238 237 237 239 240 240 238 237 237 237 236 237 237 239 238 238 239 238 239 239 237 235 237 239 241 243 244 247 248 247 250 252 256 265 269 273 270 247 233 241 246
239 239 239 239 239 240 240 240 239 238 237 237 237 237 237 240 241 241 241 240 241 240 239 238 237 238 241 244 244 245 249 248 248 249 250 252 260 262 259 254 239 238 253
240 240 240 240 241 241 240 240 240 239 239 238 238 239 239 240 241 242 241 241 242 242 241 238 238 240 242 244 246 245 250 251 250 249 249 248 250 252 255 254 255 260 253
241 241 240 240 241 241 240 240 240 240 240 240 239 239 239 240 241 242 241 241 242 242 241 239 241 243 244 245 246 248 250 251 251 251 251 250 249 250 252 255 257 262 264
241 241 241 241 241 241 240 240 239 239 241 241 240 239 240 241 242 243 242 242 241 242 242 242 243 244 245 246 246 249 252 252 253 253 252 252 251 250 251 254 256 261 265
242 242 242 242 242 242 241 241 240 239 240 241 241 240 240 242 242 242 242 243 243 244 245 245 245 246 247 247 247 249 252 254 255 254 253 254 254 253 253 254 256 258 260
243 243 243 243 243 243 243 241 240 239 240 240 241 241 241 242 242 242 242 244 245 245 246 246 246 246 247 249 249 249 251 254 256 254 253 254 256 256 255 254 256 257 258
245 243 243 243 244 244 244 243 241 240 239 240 240 241 241 242 243 243 243 244 245 245 245 246 245 245 246 248 248 248 249 253 255 254 253 253 255 256 256 257 257 256 257
244 243 243 243 244 245 244 243 243 241 240 241 240 239 241 243 243 243 244 245 245 245 245 245 245 245 245 247 247 248 250 252 254 254 253 254 255 257 258 257 257 257 256
245 244 244 245 245 246 244 243 243 242 241 241 242 241 242 244 245 244 245 245 245 246 245 245 245 245 245 246 247 247 249 251 253 253 252 254 256 257 256 256 257 257 257
245 245 246 245 246 246 245 244 243 242 242 242 243 244 244 245 245 245 245 245 245 245 246 245 246 245 245 245 246 247 249 251 252 253 252 253 254 255 256 256 257 258 258
245 245 246 246 246 246 246 244 244 244 243 243 244 246 246 246 245 246 245 245 245 245 246 247 246 246 245 246 247 248 249 250 252 252 252 252 253 255 254 256 258 258 259
246 246 246 246 246 246 246 245 244 245 245 245 246 246 247 247 246 245 245 245 246 246 246 246 246 245 245 246 246 247 248 249 250 251 252 253 253 254 255 255 256 258 258
246 246 246 246 247 247 247 246 245 245 245 245 245 245 246 245 245 245 245 245 246 246 245 246 246 246 246 246 246 246 247 247 248 250 252 253 252 253 255 255 256 258 260
246 246 246 246 247 248 249 248 247 246 246 246 246 247 247 245 245 245 245 244 244 245 246 246 246 246 245 245 246 246 247 249 249 249 251 252 253 254 255 256 257 258 260
247 247 247 247 248 249 250 249 248 246 246 247 248 247 248 247 246 246 246 245 244 244 246 247 248 247 246 246 247 248 248 250 251 252 253 253 253 255 256 257 258 258 259
248 249 248 248 249 249 249 250 249 248 248 249 248 248 248 248 247 248 247 247 246 245 246 247 248 248 247 247 248 248 248 249 251 252 253 253 254 256 257 258 258 258 260
249 249 249 248 249 249 249 249 249 248 248 249 249 249 249 248 248 249 249 249 247 246 246 247 248 248 248 247 248 249 249 249 250 250 252 254 256 256 258 258 258 259 261
250 250 250 248 248 249 249 249 248 249 249 248 248 249 250 249 248 249 249 248 247 246 247 247 248 248 248 248 248 248 249 250 250 251 252 254 256 257 257 258 260 261 262
250 250 250 250 248 249 249 250 249 248 249 248 248 249 250 250 249 249 249 249 247 246 247 247 247 247 247 248 248 248 249 250 251 252 253 254 255 256 257 259 260 262 264
250 250 250 250 249 249 249 250 250 248 248 248 248 248 249 250 249 249 250 249 247 247 247 247 246 247 248 248 249 250 250 249 250 251 253 254 255 256 258 259 261 263 264
250 249 250 250 249 249 249 250 250 249 249 249 249 249 250 249 249 249 250 249 247 247 248 247 246 248 249 249 250 251 251 250 250 251 252 254 255 257 258 260 261 263 264
249 249 249 250 250 249 249 250 251 250 249 249 249 250 250 249 250 249 248 248 248 247 247 247 247 248 249 250 250 251 251 251 251 251 252 253 255 257 258 260 261 263 264
249 250 250 250 250 250 250 250 250 250 250 249 249 249 249 249 250 250 250 249 249 248 247 248 248 249 250 250 251 251 250 250 251 252 253 254 256 257 258 260 261 262 264
250 250 250 250 250 250 250 250 249 250 250 249 249 249 249 250 250 250 250 250 250 249 248 248 248 249 249 250 251 251 250 251 253 254 254 254 256 257 258 260 261 262 263
Height
5833 5834 5835 5836 5837 5839 5840 5840 5842 5843 5844 5846 5847 5848 5849 5850 5851 5852 5852 5853 5854 5855 5855 5856 5857 5857 5858 5858 5858 5859 5859 5859 5859 5859 5859 5859 5859 5859 5859 5858 5858 5858 5858
5830 5831 5832 5833 5835 5836 5837 5838 5839 5840 5842 5843 5844 5846 5847 5848 5849 5850 5851 5851 5852 5853 5854 5854 5855 5856 5857 5857 5857 5858 5858 5858 5858 5858 5859 5859 5858 5858 5858 5858 5858 5858 5858
5826 5828 5829 5830 5831 5833 5834 5835 5836 5838 5839 5840 5842 5843 5844 5845 5847 5848 5848 5849 5850 5851 5852 5852 5853 5854 5855 5856 5856 5856 5857 5857 5857 5857 5858 5858 5858 5858 5858 5857 5857 5857 5857
5822 5824 5825 5827 5828 5829 5830 5832 5833 5835 5836 5838 5839 5840 5842 5843 5844 5845 5846 5847 5848 5849 5850 5851 5851 5852 5853 5854 5854 5855 5855 5856 5856 5856 5856 5857 5857 5857 5857 5857 5856 5856 5856
5818 5820 5821 5823 5824 5825 5826 5828 5830 5831 5833 5834 5836 5837 5839 5840 5842 5843 5844 5845 5846 5847 5848 5848 5849 5850 5851 5852 5853 5853 5853 5854 5854 5855 5855 5855 5855 5855 5855 5855 5855 5855 5855
5813 5815 5816 5818 5819 5821 5822 5824 5825 5827 5829 5831 5832 5834 5836 5837 5838 5840 5841 5842 5843 5844 5845 5846 5847 5848 5849 5850 5850 5851 5851 5852 5852 5853 5853 5853 5854 5854 5854 5854 5854 5854 5854
5808 5809 5811 5813 5814 5816 5817 5819 5821 5823 5824 5826 5828 5830 5832 5834 5835 5836 5837 5839 5840 5841 5842 5843 5844 5845 5846 5847 5848 5848 5849 5850 5850 5851 5851 5851 5852 5852 5852 5852 5852 5852 5853
5802 5804 5806 5807 5809 5811 5813 5814 5816 5818 5820 5821 5824 5826 5828 5830 5831 5832 5834 5835 5836 5837 5838 5839 5841 5842 5843 5844 5845 5846 5846 5847 5848 5848 5849 5849 5849 5850 5850 5850 5850 5850 5851
5797 5799 5800 5802 5804 5806 5807 5809 5811 5813 5814 5816 5818 5821 5823 5825 5827 5828 5829 5831 5832 5833 5834 5835 5837 5838 5839 5840 5841 5842 5843 5844 5845 5845 5846 5846 5847 5847 5847 5847 5848 5848 5848
5791 5792 5794 5796 5798 5800 5802 5804 5805 5807 5809 5811 5812 5815 5817 5819 5821 5823 5825 5826 5828 5829 5830 5831 5833 5834 5835 5836 5837 5838 5840 5840 5841 5842 5843 5843 5843 5844 5844 5844 5845 5845 5845
5784 5786 5788 5790 5792 5793 5796 5797 5799 5801 5803 5805 5807 5809 5812 5814 5816 5817 5819 5821 5822 5824 5825 5827 5828 5829 5831 5832 5833 5834 5835 5836 5838 5839 5839 5840 5840 5840 5840 5841 5842 5842 5842
5777 5779 5781 5783 5785 5787 5789 5791 5793 5795 5797 5798 5801 5803 5805 5807 5809 5811 5813 5815 5817 5818 5820 5821 5823 5825 5826 5827 5828 5830 5831 5832 5833 5834 5835 5836 5836 5837 5837 5837 5838 5838 5839
5769 5771 5774 5776 5778 5780 5782 5784 5786 5788 5790 5792 5794 5796 5799 5801 5803 5805 5806 5808 5810 5812 5814 5816 5817 5819 5821 5822 5823 5825 5826 5827 5829 5830 5831 5831 5832 5832 5833 5833 5834 5834 5835
5761 5764 5766 5768 5770 5772 5775 5777 5779 5781 5783 5785 5787 5790 5792 5794 5796 5798 5800 5802 5804 5806 5808 5810 5812 5813 5815 5816 5818 5819 5821 5822 5823 5825 5826 5827 5827 5828 5828 5829 5829 5829 5830
5753 5756 5758 5760 5762 5765 5767 5769 5771 5773 5775 5778 5780 5782 5784 5786 5788 5790 5792 5794 5797 5799 5801 5803 5805 5807 5809 5810 5812 5814 5815 5816 5818 5819 5820 5821 5822 5823 5823 5824 5824 5825 5825
5745 5747 5750 5752 5754 5756 5758 5761 5763 5765 5767 5769 5772 5774 5776 5778 5780 5782 5784 5787 5789 5792 5794 5796 5798 5800 5802 5804 5806 5807 5809 5810 5812 5813 5814 5815 5816 5817 5818 5818 5819 5820 5820
5736 5738 5741 5743 5745 5748 5750 5752 5754 5756 5759 5761 5763 5766 5768 5770 5772 5774 5776 5779 5781 5784 5786 5788 5791 5793 5795 5797 5799 5801 5802 5804 5805 5806 5808 5809 5810 5811 5812 5812 5813 5813 5814
5726 5728 5731 5733 5736 5738 5740 5743 5745 5747 5750 5752 5755 5757 5759 5761 5763 5765 5767 5770 5772 5775 5778 5780 5783 5785 5787 5789 5791 5793 5795 5796 5798 5799 5801 5802 5803 5804 5805 5806 5807 5807 5807
5716 5718 5721 5723 5726 5728 5730 5733 5735 5738 5740 5743 5745 5747 5749 5751 5753 5755 5757 5760 5763 5766 5769 5772 5774 5776 5778 5780 5783 5785 5787 5789 5790 5792 5793 5795 5796 5797 5798 5799 5800 5800 5800
5706 5708 5710 5712 5715 5717 5720 5722 5725 5727 5730 5733 5735 5737 5739 5741 5743 5745 5748 5750 5753 5756 5760 5762 5765 5767 5770 5772 5774 5776 5778 5780 5782 5784 5786 5787 5788 5789 5790 5791 5792 5792 5792
5694 5696 5699 5701 5704 5706 5709 5711 5714 5717 5720 5722 5725 5727 5729 5731 5733 5735 5738 5740 5743 5746 5749 5752 5755 5758 5760 5763 5765 5767 5769 5771 5773 5775 5777 5778 5779 5780 5781 5782 5783 5784 5784
5683 5685 5688 5690 5693 5695 5697 5700 5703 5706 5709 5711 5714 5716 5718 5720 5723 5725 5727 5730 5732 5736 5739 5742 5745 5747 5750 5753 5755 5757 5760 5763 5764 5766 5768 5769 5770 5771 5772 5773 5774 5775 5776
5672 5674 5676 5679 5681 5684 5686 5689 5691 5694 5696 5699 5702 5704 5707 5709 5712 5714 5717 5719 5722 5725 5728 5731 5734 5737 5740 5742 5745 5747 5750 5753 5755 5757 5758 5760 5761 5762 5763 5763 5764 5765 5766
5661 5663 5665 5667 5669 5672 5674 5677 5679 5682 5685 5688 5690 5693 5695 5698 5700 5703 5705 5708 5711 5714 5717 5720 5723 5726 5729 5731 5734 5736 5739 5742 5744 5746 5748 5749 5750 5752 5752 5753 5754 5755 5756
5650 5652 5654 5656 5658 5660 5662 5665 5667 5670 5673 5675 5678 5680 5683 5686 5688 5691 5694 5697 5699 5702 5706 5709 5712 5715 5717 5720 5722 5725 5727 5730 5732 5735 5737 5739 5740 5741 5742 5743 5744 5745 5745
5639 5640 5642 5644 5646 5648 5650 5652 5655 5658 5660 5663 5665 5668 5671 5673 5676 5679 5682 5685 5688 5691 5694 5697 5700 5703 5705 5708 5710 5713 5715 5718 5720 5723 5725 5728 5729 5730 5731 5732 5733 5733 5734